Location: Newark
(7.0858°N, 171.3717°E)
Time: 20:14:55
(UTC+00:00)

Tiros 1 - Pass Details

Date: 02 December 2020
Orbit: 630 x 663 km, 48.4° (Epoch: 18 January)

Event Time Altitude Azimuth Distance (km) Brightness Sun altitude
Rises 11:59:56 0° 296° (WNW) 2,932 - -73.9°
Reaches altitude 10° 12:02:48 10° 278° (W) 2,018 - -74.2°
Maximum altitude 12:06:08 20° 232° (SW) 1,482 - -74.4°
Drops below altitude 10° 12:09:28 10° 186° (S) 2,007 - -74.6°
Sets 12:12:20 0° 168° (SSE) 2,911 - -74.8°
